Date,TemperatureHighF,TemperatureAvgF,TemperatureLowF,DewpointHighF,DewpointAvgF,DewpointLowF,HumidityHigh,HumidityAvg,HumidityLow,PressureMaxIn,PressureMinIn,WindSpeedMaxMPH,WindSpeedAvgMPH,GustSpeedMaxMPH,PrecipitationSumIn
2013-2-1,63,49,39,47,39,30,79,67,54,30.04,29.96,18,4,18,0.00
2013-2-2,64,50,39,49,40,31,81,68,57,30.11,30.01,16,2,16,0.00
2013-2-3,63,49,38,47,39,30,79,69,53,30.07,29.96,13,3,13,0.00
2013-2-4,66,48,32,49,38,25,82,69,52,30.00,29.88,12,1,12,0.00
2013-2-5,54,47,41,43,41,37,88,80,65,29.95,29.88,21,9,21,0.00
2013-2-6,62,46,32,45,38,28,89,72,49,30.01,29.92,16,2,16,0.00
2013-2-7,54,42,33,42,34,25,81,71,57,29.99,29.80,24,5,24,0.00
2013-2-8,52,41,32,39,33,24,79,72,59,29.82,29.73,21,4,21,0.00
2013-2-9,60,43,31,34,28,21,75,55,37,29.90,29.76,29,6,29,0.00
2013-2-10,58,41,27,38,28,17,73,58,45,29.93,29.84,25,3,25,0.00
2013-2-11,62,43,29,35,27,20,74,55,35,30.03,29.86,19,3,19,0.00
2013-2-12,59,42,29,39,29,18,72,59,46,30.18,30.03,18,3,18,0.00
2013-2-13,63,45,30,42,32,20,77,60,43,30.15,30.03,21,2,21,0.00
2013-2-14,64,48,33,44,34,24,77,60,47,30.08,30.01,28,5,28,0.00
2013-2-15,68,51,35,48,37,25,72,60,47,30.12,30.02,18,3,18,0.00
2013-2-16,67,49,36,47,36,25,79,61,46,30.07,29.85,16,2,16,0.00
2013-2-17,63,48,36,44,36,27,83,62,43,29.88,29.80,20,4,20,0.00
2013-2-18,50,44,34,40,34,24,74,67,62,29.86,29.77,28,9,28,0.00
2013-2-19,47,41,35,38,34,28,79,73,65,29.78,29.54,33,7,33,0.00
2013-2-20,57,42,28,39,31,21,83,66,43,29.87,29.62,19,3,19,0.00
2013-2-21,57,43,33,38,31,25,80,64,44,29.98,29.84,37,4,37,0.00
2013-2-22,62,45,30,41,32,22,78,61,42,30.07,29.96,20,2,20,0.00
2013-2-23,61,49,41,41,34,25,82,59,37,30.06,29.97,27,9,27,0.00
2013-2-24,59,47,35,32,27,21,57,45,34,30.08,29.99,26,6,26,0.00
2013-2-25,62,44,29,44,30,18,70,57,47,30.08,29.99,19,2,19,0.00
2013-2-26,65,47,30,34,28,20,70,50,31,30.04,29.97,27,4,27,0.00
2013-2-27,67,48,31,42,31,18,71,52,38,30.19,30.01,11,0,11,0.00
2013-2-28,68,52,38,51,40,26,76,62,52,30.28,30.17,16,2,16,0.00